Simultaneous Nadir Overpasses (SNOs) Predictions

Prediction of SNOs between AQUA and METOP-C Satellite Orbit:

Table of predicted SNOs for the next 14.0 days since TLE Epoch: 5/29/2020
Index Date (AQUA) Time (AQUA) Lat,Lon (AQUA) SZA (AQUA ) Date (METOP-C) Time (METOP-C) Lat,Lon (METOP-C) SZA (METOP-C ) Distance(km) Time Diff (sec)
1 06/01/2020 04:54:21 73.72, 100.92 51.58 06/01/2020 04:53:49 73.72, 100.84 51.59 2.52 32
2 06/01/2020 05:43:49 -73.82, -91.67 128.31 06/01/2020 05:44:30 -73.80, -91.64 128.34 2.82 41
3 06/04/2020 00:28:37 73.75, 167.29 51.27 06/04/2020 00:28:11 73.75, 167.32 51.28 0.86 26
4 06/04/2020 01:18:04 -73.79, -25.17 128.69 06/04/2020 01:18:53 -73.78, -25.27 128.70 3.29 49
5 06/06/2020 19:13:14 -73.20, 67.23 129.60 06/06/2020 19:12:06 -73.14, 65.01 129.58 72.07 68
6 06/06/2020 20:02:51 73.73,-126.24 50.96 06/06/2020 20:02:33 73.73,-126.32 50.96 2.75 18
7 06/06/2020 20:52:19 -73.82, 41.20 128.95 06/06/2020 20:53:14 -73.82, 41.21 128.96 0.79 55
8 06/09/2020 14:47:34 -73.45, 133.17 129.58 06/09/2020 14:46:23 -73.42, 132.04 129.56 35.90 71
9 06/09/2020 15:37:07 73.77, -59.89 50.76 06/09/2020 15:36:55 73.76, -59.85 50.75 1.98 12
10 06/09/2020 16:26:34 -73.81, 107.67 129.20 06/09/2020 16:27:37 -73.80, 107.57 129.22 3.20 63
11 06/12/2020 10:21:54 -73.70,-160.93 129.50 06/12/2020 10:20:41 -73.65,-161.03 129.53 6.07 73
12 06/12/2020 11:11:22 73.77, 6.56 50.57 06/12/2020 11:11:17 73.79, 6.62 50.59 2.91 5
13 06/12/2020 12:00:50 -73.85, 174.02 129.34 06/12/2020 12:01:59 -73.83, 174.05 129.37 2.46 69




NCC Satellite Simultaneous Nadir Overpasses (SNOs) Prediction Service
